Regional Weather Roundup
Issued by NWS Cleveland, OH

Home | Current Version | Previous Version | Text Only | Print | Product List | Glossary Off
Versions: 1 2 3 4 5 6 7 8 9 10 11 12 13 14 15 16 17 18 19 20 21 22 23 24 25 26 27 28 29 30 31 32 33 34 35 36 37 38 39 40 41 42 43 44 45 46 47 48 49 50

000
ASUS41 KCLE 210110
RWRCLE
OHIO REGIONAL WEATHER ROUNDUP
NATIONAL WEATHER SERVICE WILMINGTON, OH
900 PM EDT FRI APR 20 2018

NOTE: "FAIR" INDICATES FEW OR NO CLOUDS BELOW 12,000 FEET WITH NO
SIGNIFICANT WEATHER AND/OR OBSTRUCTIONS TO VISIBILITY.

OHZ001>008-015>018-024>027-034-035-043-044-210200-
   NORTHWEST OHIO

CITY           SKY/WX    TMP DP  RH WIND       PRES   REMARKS
DEFIANCE       FAIR      50  25  37 CALM      30.42S
FINDLAY        FAIR      49  23  36 SE8       30.42R
TOLEDO EXPRESS FAIR      48  19  31 E3        30.43R
TOLEDO EXEC    FAIR      46  29  51 E8        30.45R
LIMA           FAIR      47  27  45 E3        30.42S
$$

OHZ009>014-019>023-028>033-038-089-210200-
   NORTHEAST OHIO

CITY           SKY/WX    TMP DP  RH WIND       PRES   REMARKS
CLE-HOPKINS    FAIR      45  20  36 NE5       30.48S
CLE-LAKEFRONT  FAIR      43  27  53 CALM      30.46S
CUY CO. ARPT   PTCLDY    41  21  45 CALM      30.47R
LORAIN-ELYRIA  FAIR      43  22  43 NE10      30.46S
ASHTABULA      FAIR      39  21  48 W6        30.46R
AKRON-CANTON   FAIR      41  18  39 N8        30.44S
WOOSTER        FAIR      41  22  46 NE5       30.45S
MANSFIELD      FAIR      44  19  36 N3        30.44R
YOUNGSTOWN     FAIR      39  22  50 N7        30.44R
$$

OHZ042-051>053-060>062-070>072-077>081-210200-
  SOUTHWEST OHIO

CITY           SKY/WX    TMP DP  RH WIND       PRES   REMARKS
CINC-COVINGTON MOCLDY    53  24  32 N5        30.40S
CINC-LUNKEN    FAIR      51  32  48 CALM      30.42R
HAMILTON       FAIR      45  34  65 N3        30.42S
DAYTON         FAIR      48  26  42 NE7       30.42S
WRIGHT-PAT AFB FAIR      51  26  37 N5        30.42R
DAYTON GENERAL FAIR      53  22  29 NE5       30.41R
WILMINGTON     FAIR      48  29  47 NE5       30.41R
$$

OHZ036-037-039>041-045>050-054>059-063>069-073>076-082>088-210200-
  CENTRAL AND SOUTHEAST OHIO

CITY           SKY/WX    TMP DP  RH WIND       PRES   REMARKS
COLUMBUS       FAIR      50  25  37 N7        30.42R
OSU AIRPORT    FAIR      46  26  45 N7        30.42R
BOLTON FIELD   FAIR      45  28  51 N7        30.43R
RICKENBACK AFB FAIR      49  26  40 N7        30.42R
NEWARK         FAIR      50  23  34 N5        30.42R
MARION         FAIR      41  26  55 E6        30.44R
LANCASTER      FAIR      46  32  58 N3        30.42R
ZANESVILLE     FAIR      49  20  31 N6        30.42
NEW PHILLY     FAIR      45  19  35 N3        30.44R
$$




USA.gov is the U.S. government's official web portal to all federal, state and local government web resources and services.